STARLINK-3827, 52370

Orbit data source: Space-Track

STARLINK-3827, 52370 is a payload satellite owned by SpaceX/Seattle (US) in LEO that was launched on Fri, 29 Apr 2022 UTC via an FALCON 9 launch vehicle from the Air Force Eastern Test Range (AFETR). Payload-class satellites include a variety of spacecraft equipped with specific instruments for various scientific and technological missions. These include communications satellites like Starlink; space stations such as the ISS; scientific satellites like the Hubble; Earth observation satellites from companies like Planet Labs, Umbra, and HawkEye 360; GPS; miniature CubeSats for education and research; and military/defense satellites.

Loading next visibility...
Identifier
52370, 2022-045AR
Orbit
LEO
Country
Flag of USUS
Related business
Manufacturer
SpaceX/Seattle
Mission
Operational Commercial Communications
Bus & Motor
STARLINK, Unknown motor
Mass
297 kg wet, ~275 kg dry
Launch date (UTC)
2022-04-29 (4 years ago)
Launch vehicle
FALCON 9
Launch site
Air Force Eastern Test Range (AFETR)
Object type
Payload
Rocket body
Debris
Shape & HBR
Box + 1 Pan, 10.1 m
Radar Cross Section
11.087 m², Large (>1 m²)

Expand to show TLE details & history
Last TLE update: 17 hours ago

TLE from 17 hours ago
0 STARLINK-3827
1 52370U 22045AR  25348.91823713  .00000041  00000-0  20696-4 0  9998
2 52370  53.2161 209.6823 0001415  97.3849 262.7304 15.08833788203121
Epoch: 2025-12-14T22:02Z
TLE epoch observation values (Epoch: 2025-12-14T22:02:15.688Z)
Latitude
Longitude
155.29267°
Altitude
540.784 km
Speed
7.593 km/s
True Right ascension
13h 58m 43s
True Declination
0° 00' 00"
Sunlit
Object was in daylight at epoch
Visualization orbit readout
Latitude
Unknown
Longitude
Unknown
Altitude
Unknown
Speed
Unknown
Apparent Right ascension
Unknown
Apparent Declination
Unknown
Sunlit
N/A
Visualization observer readout
Local Sidereal Time
13:19:49
Azimuth
Unknown
Elevation
Unknown
Doppler factor
Unknown
Orbital elements
Apogee altitude
540.986 km
Perigee altitude
539.029 km
Semi-major axis
6,918.145 km
Eccentricity
0.00014
Inclination
53.2161°
RAAN
209.6823°
Arg. of periapsis
97.3849°
True anomaly
262.71432°
Mean anomaly
262.7304°
Eccentric anomaly
262.72236°
Mean motion
3.77189 °/min
Orbital period
95.44 mins
BSTAR
0.000020696
Loading maneuver chart data...
Computing Atmospheric mass density...
Loading historical data...
Loading historical data...
Loading historical data...
Loading historical data...
Loading historical data...
Loading historical data...
Loading historical data...

Documentation

Showing up to 5 results
|